Altus AFB, OK

12:18 PM CDT on May 27, 2017 (GMT -0500)
Altus Air Force Base

Weather History for KLTS - November, 2014

Change the Weather History Date:

Saturday, November 1, 2014

  Actual Average Record
Temperature  
Mean Temperature 46 °F -  
Max Temperature 63 °F 64 °F 91 °F (2001)
Min Temperature 31 °F 43 °F 31 °F (2014)
Degree Days  
Heating Degree Days 18    
Moisture  
Dew Point 26 °F    
Average Humidity 49    
Maximum Humidity 73    
Minimum Humidity 24    
Precipitation  
Precipitation 0.00 in - - ()
Sea Level Pressure  
Sea Level Pressure 30.31 in    
Wind  
Wind Speed 9 mph (SE)    
Max Wind Speed 20 mph    
Max Gust Speed 26 mph    
Visibility 10 miles    
Events      
Averages and records for this station are not official NWS values.
T = Trace of Precipitation, MM = Missing Value Source: NWS Daily Summary

Daily Weather History Graph

Daily Weather History Graph

Search for Another Location

Airport or City:

Trip Planner

Search our weather history database for the weather conditions in past years. The results will help you decide how hot, cold, wet, or windy it might be!

Date:

Astronomy

Nov. 01, 2014 Rise Set
Actual Time 7:57 AM CDT 6:43 PM CDT
Civil Twilight 7:31 AM CDT 7:09 PM CDT
Nautical Twilight 7:01 AM CDT 7:39 PM CDT
Astronomical Twilight 6:32 AM CDT 8:08 PM CDT
Moon 3:25 PM CDT (11/1) 2:09 AM CDT (11/1)
Length of Visible Light 11h 37m
Length of Day
10h 45m
Waxing Gibbous, 68% of the Moon is Illuminated
Nov 1
Waxing Gibbous
Nov 6
Full
Nov 14
Last Quarter
Nov 22
New
Nov 29
First Quarter

Hourly Weather History & Observations

Time (CDT) Temp. Windchill Dew Point Humidity Pressure Visibility Wind Dir Wind Speed Gust Speed Precip Events Conditions
12:58 AM 35.1 °F 30.1 °F 26.1 °F 70% 30.39 in 10.0 mi NNE 5.8 mph - N/A   Clear
1:58 AM 35.8 °F 30.9 °F 26.2 °F 68% 30.39 in 10.0 mi NNE 5.8 mph - N/A   Clear
2:58 AM 35.1 °F 32.2 °F 25.9 °F 69% 30.38 in 10.0 mi NE 3.5 mph - N/A   Clear
3:58 AM 34.9 °F 30.8 °F 25.2 °F 68% 30.38 in 10.0 mi East 4.6 mph - N/A   Clear
4:58 AM 35.6 °F 32.8 °F 24.4 °F 64% 30.38 in 10.0 mi SE 3.5 mph - N/A   Clear
5:58 AM 33.1 °F 27.7 °F 24.1 °F 70% 30.39 in 10.0 mi SE 5.8 mph - N/A   Clear
6:58 AM 32.5 °F 27.1 °F 24.4 °F 72% 30.40 in 10.0 mi ESE 5.8 mph - N/A   Clear
7:58 AM 31.8 °F 26.2 °F 23.9 °F 73% 30.42 in 10.0 mi ESE 5.8 mph - N/A   Clear
8:58 AM 35.6 °F 30.7 °F 25.5 °F 67% 30.41 in 10.0 mi ESE 5.8 mph - N/A   Clear
9:58 AM 42.6 °F 35.9 °F 23.5 °F 47% 30.42 in 10.0 mi SE 12.7 mph - N/A   Clear
10:58 AM 47.1 °F - 26.4 °F 45% 30.41 in 10.0 mi SE 12.7 mph - N/A   Clear
11:58 AM 50.2 °F - 27.9 °F 42% 30.40 in 10.0 mi South 13.8 mph - N/A   Clear
12:58 PM 54.7 °F - 29.1 °F 38% 30.34 in 10.0 mi SSE 13.8 mph 24.2 mph N/A   Clear
1:58 PM 58.1 °F - 29.5 °F 34% 30.30 in 10.0 mi SE 15.0 mph 20.7 mph N/A   Clear
2:58 PM 60.3 °F - 28.2 °F 30% 30.26 in 10.0 mi SE 12.7 mph 24.2 mph N/A   Clear
3:58 PM 62.6 °F - 25.9 °F 25% 30.22 in 10.0 mi SSE 16.1 mph 25.3 mph N/A   Clear
4:58 PM 62.6 °F - 24.6 °F 24% 30.20 in 10.0 mi SE 17.3 mph 24.2 mph N/A   Clear
5:58 PM 61.2 °F - 23.9 °F 24% 30.19 in 10.0 mi SSE 19.6 mph 26.5 mph N/A   Clear
6:58 PM 57.4 °F - 25.7 °F 30% 30.18 in 10.0 mi SE 13.8 mph - N/A   Clear
7:58 PM 54.3 °F - 26.2 °F 34% 30.20 in 10.0 mi SE 12.7 mph - N/A   Clear
8:58 PM 52.3 °F - 28.6 °F 40% 30.21 in 10.0 mi SE 10.4 mph - N/A   Clear
9:58 PM 51.1 °F - 28.9 °F 43% 30.19 in 10.0 mi SE 12.7 mph - N/A   Clear
10:58 PM 50.7 °F - 29.5 °F 44% 30.18 in 10.0 mi SE 11.5 mph - N/A   Clear
11:58 PM 50.9 °F - 30.0 °F 45% 30.17 in 10.0 mi SE 12.7 mph - N/A   Clear